Weather History for Pasco, WA

Change the Weather History Date:

Friday, December 7, 2012

  Actual Average Record
Temperature  
Mean Temperature 45 °F 34 °F  
Max Temperature 52 °F 41 °F 52 °F (1991)
Min Temperature 37 °F 28 °F 2 °F (2009)
Degree Days  
Heating Degree Days 20 31  
Month to date heating degree days 119 210  
Since 1 July heating degree days 1216 1439  
Cooling Degree Days 0 0  
Month to date cooling degree days 0 0  
Year to date cooling degree days 788 710  
Moisture  
Dew Point 33 °F    
Average Humidity 65    
Maximum Humidity 76    
Minimum Humidity 53    
Precipitation  
Precipitation 0.00 in - 0.60 in (1973)
Month to date precipitation 0.27  
Year to date precipitation 8.83  
Snow  
Snow 0.00 in - - ()
Snow Depth 0.00 in    
Sea Level Pressure  
Sea Level Pressure 30.01 in    
Wind  
Wind Speed 12 mph (WSW)    
Max Wind Speed 31 mph    
Max Gust Speed 38 mph    
Visibility 10 miles    
Events Snow    
T = Trace of Precipitation, MM = Missing Value Source: NWS Daily Summary

Daily Weather History Graph

Daily Weather History Graph

Search for Another Location

Airport:

Trip Planner

Search our weather history database for the weather conditions in past years. The results will help you decide how hot, cold, wet, or windy it might be!

Date:

Astronomy

Dec. 07, 2012 Rise Set
Actual Time 7:26 AM PST 4:10 PM PST
Civil Twilight 6:51 AM PST 4:44 PM PST
Nautical Twilight 6:13 AM PST 5:22 PM PST
Astronomical Twilight 5:37 AM PST 5:59 PM PST
Moon 12:31 AM PST (12/7) 12:26 PM PST (12/7)
Length of Visible Light 9h 53m
Length of Day
8h 44m
Last Quarter, 37% of the Moon is Illuminated
Dec 7
Last Quarter
Dec 13
New
Dec 19
First Quarter
Dec 28
Full
Jan 4
Last Quarter

Hourly Weather History & Observations

Time (PST) Temp. Windchill Dew Point Humidity Pressure Visibility Wind Dir Wind Speed Gust Speed Precip Events Conditions
12:53 AM 44.1 °F 37.1 °F 35.1 °F 71% 30.10 in 10.0 mi WSW 15.0 mph - N/A   Clear
1:53 AM 42.1 °F 39.2 °F 35.1 °F 76% 30.10 in 10.0 mi Variable 4.6 mph - N/A   Clear
2:53 AM 42.1 °F 39.2 °F 36.0 °F 79% 30.09 in 10.0 mi West 4.6 mph - N/A   Clear
3:53 AM 43.0 °F 41.3 °F 36.0 °F 76% 30.07 in 10.0 mi SSW 3.5 mph - N/A   Clear
4:53 AM 45.0 °F 38.2 °F 36.0 °F 71% 30.06 in 10.0 mi SW 15.0 mph - N/A   Clear
5:53 AM 45.0 °F 40.1 °F 36.0 °F 71% 30.04 in 10.0 mi SW 9.2 mph 17.3 mph N/A   Clear
6:53 AM 46.0 °F 39.0 °F 36.0 °F 68% 30.03 in 10.0 mi SW 17.3 mph - N/A   Mostly Cloudy
7:53 AM 45.0 °F 38.2 °F 35.1 °F 68% 30.02 in 10.0 mi SW 15.0 mph - N/A   Clear
8:53 AM 46.9 °F - 34.0 °F 61% 30.01 in 10.0 mi SW 19.6 mph 31.1 mph N/A   Mostly Cloudy
9:53 AM 46.9 °F - 35.1 °F 63% 30.00 in 10.0 mi SSW 16.1 mph - N/A   Mostly Cloudy
10:53 AM 48.0 °F - 34.0 °F 58% 29.99 in 10.0 mi SSW 13.8 mph - N/A   Partly Cloudy
11:53 AM 50.0 °F - 35.1 °F 57% 29.95 in 10.0 mi SSW 16.1 mph 21.9 mph N/A   Scattered Clouds
12:53 PM 52.0 °F - 35.1 °F 53% 29.92 in 10.0 mi SW 23.0 mph 29.9 mph N/A   Scattered Clouds
1:53 PM 52.0 °F - 36.0 °F 54% 29.91 in 10.0 mi SW 24.2 mph 31.1 mph N/A   Clear
2:53 PM 51.1 °F - 36.0 °F 56% 29.90 in 10.0 mi WSW 24.2 mph 32.2 mph N/A   Scattered Clouds
3:53 PM 50.0 °F - 36.0 °F 59% 29.90 in 10.0 mi WSW 21.9 mph 28.8 mph N/A   Scattered Clouds
4:53 PM 48.9 °F - 33.1 °F 54% 29.92 in 10.0 mi WSW 13.8 mph - N/A   Clear
5:53 PM 46.9 °F - 33.1 °F 59% 29.95 in 10.0 mi WSW 11.5 mph - N/A   Clear
6:53 PM 42.1 °F 35.7 °F 28.9 °F 60% 30.00 in 10.0 mi West 11.5 mph - N/A   Clear
7:53 PM 41.0 °F 37.1 °F 27.0 °F 57% 30.02 in 10.0 mi West 5.8 mph - N/A   Clear
8:53 PM 42.1 °F - 26.1 °F 53% 30.04 in 10.0 mi Calm Calm - N/A   Clear
9:53 PM 39.9 °F 37.8 °F 26.1 °F 58% 30.06 in 10.0 mi NW 3.5 mph - N/A   Clear
10:53 PM 41.0 °F 33.9 °F 26.1 °F 55% 30.06 in 10.0 mi West 12.7 mph - 0.00 in   Clear
11:53 PM 37.9 °F 30.9 °F 26.1 °F 62% 30.09 in 10.0 mi WSW 10.4 mph - 0.00 in Snow Light Snow